TimeCST,TemperatureF,Dew PointF,Humidity,Sea Level PressureIn,VisibilityMPH,Wind Direction,Wind SpeedMPH,Gust SpeedMPH,PrecipitationIn,Events,Conditions,WindDirDegrees,DateUTC
12:56 AM,34.9,27.1,73,30.48,7.0,NE,5.8,-,N/A,,Clear,50,2012-11-14 06:56:00
1:56 AM,34.0,27.1,76,30.48,4.0,ENE,6.9,-,N/A,,Haze,60,2012-11-14 07:56:00
2:23 AM,33.8,26.6,75,30.47,2.5,ENE,6.9,-,N/A,,Haze,60,2012-11-14 08:23:00
2:56 AM,34.0,27.1,76,30.48,2.5,ENE,6.9,-,N/A,,Haze,60,2012-11-14 08:56:00
3:56 AM,34.0,26.1,73,30.47,7.0,ENE,9.2,-,N/A,,Clear,60,2012-11-14 09:56:00
4:56 AM,32.9,26.1,76,30.48,10.0,ENE,6.9,-,N/A,,Clear,60,2012-11-14 10:56:00
5:56 AM,32.9,26.1,76,30.48,10.0,NNE,6.9,-,0.00,,Clear,30,2012-11-14 11:56:00
6:56 AM,32.9,27.1,79,30.49,10.0,East,4.6,-,N/A,,Partly Cloudy,80,2012-11-14 12:56:00
8:56 AM,37.9,29.1,71,30.51,10.0,NE,5.8,-,N/A,,Scattered Clouds,50,2012-11-14 14:56:00
9:56 AM,43.0,31.1,63,30.51,10.0,East,4.6,-,N/A,,Clear,90,2012-11-14 15:56:00
10:56 AM,43.9,30.0,58,30.47,10.0,East,8.1,-,N/A,,Clear,90,2012-11-14 16:56:00
11:56 AM,45.9,28.0,50,30.44,10.0,ENE,9.2,-,N/A,,Clear,70,2012-11-14 17:56:00
12:56 PM,45.9,29.1,52,30.41,10.0,NNE,8.1,-,N/A,,Clear,20,2012-11-14 18:56:00
1:56 PM,45.9,29.1,52,30.40,10.0,NE,6.9,-,0.00,,Clear,40,2012-11-14 19:56:00
2:56 PM,46.9,29.1,50,30.40,10.0,NNE,8.1,-,N/A,,Partly Cloudy,30,2012-11-14 20:56:00
3:56 PM,45.9,29.1,52,30.40,10.0,North,5.8,-,N/A,,Clear,10,2012-11-14 21:56:00
4:56 PM,45.0,29.1,54,30.38,10.0,NE,3.5,-,N/A,,Clear,40,2012-11-14 22:56:00
5:56 PM,45.0,30.0,56,30.38,10.0,Calm,Calm,-,N/A,,Clear,0,2012-11-14 23:56:00
6:56 PM,41.0,30.0,65,30.39,10.0,Calm,Calm,-,N/A,,Clear,0,2012-11-15 00:56:00
7:56 PM,41.0,31.1,68,30.38,10.0,ENE,4.6,-,N/A,,Clear,60,2012-11-15 01:56:00
8:56 PM,39.9,31.1,71,30.38,10.0,NE,4.6,-,N/A,,Clear,40,2012-11-15 02:56:00
9:56 PM,37.9,31.1,76,30.38,10.0,NE,3.5,-,N/A,,Clear,50,2012-11-15 03:56:00
10:56 PM,36.9,31.1,80,30.36,10.0,ENE,4.6,-,N/A,,Clear,60,2012-11-15 04:56:00
11:56 PM,36.9,31.1,80,30.35,10.0,NE,3.5,-,N/A,,Clear,40,2012-11-15 05:56:00